Погода в Печках

Россия / Псковская область     57°50′27″N   27°59′25″E
темп.,
°C
ветер,
м/с
пор.,
м/с
влажн.,
%
обл.,
%
осадки,
мм/ч
давл.,
гПа
погр.,
м
13 апреля, вт
вт1300:00+9ю4137285 0.0 1019341
03:00+7ю368051 0.0 1019113
06:00+7ююв377887 0.0 1019181
09:00+9ю357285 0.0 1019244
12:00+11юз1268100 0.0 1020504
15:00+8ссз468699 0.1 1021383
18:00+7ссз578576 0.0 1020442
21:00+5ссз5989100 0.0 1021409
14 апреля, ср
ср1400:00+4ссз5991100 0.0 1020414
03:00+2ссз61192100 0.0 1020465
06:00+2с51195100 0.0 1020483
09:00+2с51093100 0.1 1020466
12:00+4с5872100 0.0 1021534
15:00+5с4660100 0.0 1021556
18:00+6с3663100 0.0 1021347
21:00+4с2568100 0.0 1022126
15 апреля, чт
чт1500:00+4с4871100 0.0 1023281
03:00+3ссв41074100 0.0 1023430
06:00+4ссв51272100 0.0 1023564
09:00+4ссв51270100 0.0 1024601
12:00+6ссв51161100 0.0 1024760
15:00+9св6951100 0.0 10231164
18:00+9св51057100 0.0 1023934
21:00
16 апреля, пт
пт1600:00+5ссв51270100 0.0 1025616
03:00+4ссв51272100 0.0 1025544
06:00+4ссв51176100 0.0 1025510
09:00+5св51172100 0.0 1025560
12:00+10св6859100 0.0 1025865
15:00+12всв6851100 0.0 10251170
18:00+11св5945100 0.0 10251127
21:00+7св411586 0.0 1028292
17 апреля, сб
сб1700:00+6св4116456 0.0 1028370
03:00+4св4117220 0.0 1029378
06:00+3св4117810 0.0 1030351
09:00+7всв510615 0.0 1030520
12:00+11в69435 0.0 10311083
15:00+13всв683747 0.0 10311326
18:00+12всв574568 0.0 10311242
21:00+7всв39639 0.0 1032189